Year,Month,Day,Hour,Minute,Value (Times are PST for temperature in C)
2014,08,21,00,00,15.30
2014,08,21,00,01,15.30
2014,08,21,00,02,15.30
2014,08,21,00,03,15.30
2014,08,21,00,04,15.30
2014,08,21,00,05,15.30
2014,08,21,00,06,15.30
2014,08,21,00,07,15.20
2014,08,21,00,08,15.20
2014,08,21,00,09,15.20
2014,08,21,00,10,15.20
2014,08,21,00,11,15.20
2014,08,21,00,12,15.20
2014,08,21,00,13,15.20
2014,08,21,00,14,15.20
2014,08,21,00,15,15.10
2014,08,21,00,16,15.10
2014,08,21,00,17,15.10
2014,08,21,00,18,15.10
2014,08,21,00,19,15.10
2014,08,21,00,20,15.00
2014,08,21,00,21,15.00
2014,08,21,00,22,15.00
2014,08,21,00,23,14.90
2014,08,21,00,24,14.90
2014,08,21,00,25,14.90
2014,08,21,00,26,14.90
2014,08,21,00,27,14.80
2014,08,21,00,28,14.80
2014,08,21,00,29,14.80
2014,08,21,00,30,14.80
2014,08,21,00,31,14.80
2014,08,21,00,32,14.70
2014,08,21,00,33,14.70
2014,08,21,00,34,14.70
2014,08,21,00,35,14.70
2014,08,21,00,36,14.70
2014,08,21,00,37,14.70
2014,08,21,00,38,14.70
2014,08,21,00,39,14.60
2014,08,21,00,40,14.60
2014,08,21,00,41,14.60
2014,08,21,00,42,14.60
2014,08,21,00,43,14.60
2014,08,21,00,44,14.60
2014,08,21,00,45,14.70
2014,08,21,00,46,14.70
2014,08,21,00,47,14.70
2014,08,21,00,48,14.80
2014,08,21,00,49,14.80
2014,08,21,00,50,14.80
2014,08,21,00,51,14.80
2014,08,21,00,52,14.80
2014,08,21,00,53,14.80
2014,08,21,00,54,14.80
2014,08,21,00,55,14.80
2014,08,21,00,56,14.70
2014,08,21,00,57,14.60
2014,08,21,00,58,14.60
2014,08,21,00,59,14.60
2014,08,21,01,00,14.50
2014,08,21,01,01,14.40
2014,08,21,01,02,14.40
2014,08,21,01,03,14.40
2014,08,21,01,04,14.30
2014,08,21,01,05,14.30
2014,08,21,01,06,14.30
2014,08,21,01,07,14.30
2014,08,21,01,08,14.30
2014,08,21,01,09,14.30
2014,08,21,01,10,14.30
2014,08,21,01,11,14.30
2014,08,21,01,12,14.20
2014,08,21,01,13,14.20
2014,08,21,01,14,14.20
2014,08,21,01,15,14.10
2014,08,21,01,16,14.10
2014,08,21,01,17,14.10
2014,08,21,01,18,14.00
2014,08,21,01,19,14.00
2014,08,21,01,20,13.90
2014,08,21,01,21,13.90
2014,08,21,01,22,13.90
2014,08,21,01,23,13.80
2014,08,21,01,24,13.80
2014,08,21,01,25,13.80
2014,08,21,01,26,13.70
2014,08,21,01,27,13.70
2014,08,21,01,28,13.70
2014,08,21,01,29,13.70
2014,08,21,01,30,13.70
2014,08,21,01,31,13.70
2014,08,21,01,32,13.70
2014,08,21,01,33,13.70
2014,08,21,01,34,13.70
2014,08,21,01,35,13.70
2014,08,21,01,36,13.70
2014,08,21,01,37,13.70
2014,08,21,01,38,13.70
2014,08,21,01,39,13.70
2014,08,21,01,40,13.70
2014,08,21,01,41,13.80
2014,08,21,01,42,13.80
2014,08,21,01,43,13.80
2014,08,21,01,44,13.90
2014,08,21,01,45,13.90
2014,08,21,01,46,13.90
2014,08,21,01,47,14.00
2014,08,21,01,48,14.00
2014,08,21,01,49,14.00
2014,08,21,01,50,14.10
2014,08,21,01,51,14.10
2014,08,21,01,52,14.10
2014,08,21,01,53,14.10
2014,08,21,01,54,14.10
2014,08,21,01,55,14.10
2014,08,21,01,56,14.10
2014,08,21,01,57,14.10
2014,08,21,01,58,14.10
2014,08,21,01,59,14.10
2014,08,21,02,00,14.10
2014,08,21,02,01,14.10
2014,08,21,02,02,14.10
2014,08,21,02,03,14.10
2014,08,21,02,04,14.10
2014,08,21,02,05,14.10
2014,08,21,02,06,14.10
2014,08,21,02,07,14.10
2014,08,21,02,08,14.00
2014,08,21,02,09,14.00
2014,08,21,02,10,14.00
2014,08,21,02,11,13.90
2014,08,21,02,12,13.90
2014,08,21,02,13,13.90
2014,08,21,02,14,13.80
2014,08,21,02,15,13.80
2014,08,21,02,16,13.80
2014,08,21,02,17,13.80
2014,08,21,02,18,13.80
2014,08,21,02,19,13.70
2014,08,21,02,20,13.70
2014,08,21,02,21,13.70
2014,08,21,02,22,13.70
2014,08,21,02,23,13.70
2014,08,21,02,24,13.70
2014,08,21,02,25,13.70
2014,08,21,02,26,13.70
2014,08,21,02,27,13.70
2014,08,21,02,28,13.70
2014,08,21,02,29,13.70
2014,08,21,02,30,13.70
2014,08,21,02,31,13.70
2014,08,21,02,32,13.70
2014,08,21,02,33,13.70
2014,08,21,02,34,13.70
2014,08,21,02,35,13.60
2014,08,21,02,36,13.60
2014,08,21,02,37,13.60
2014,08,21,02,38,13.60
2014,08,21,02,39,13.60
2014,08,21,02,40,13.60
2014,08,21,02,41,13.60
2014,08,21,02,42,13.50
2014,08,21,02,43,13.50
2014,08,21,02,44,13.50
2014,08,21,02,45,13.50
2014,08,21,02,46,13.50
2014,08,21,02,47,13.50
2014,08,21,02,48,13.50
2014,08,21,02,49,13.50
2014,08,21,02,50,13.50
2014,08,21,02,51,13.50
2014,08,21,02,52,13.50
2014,08,21,02,53,13.50
2014,08,21,02,54,13.50
2014,08,21,02,55,13.50
2014,08,21,02,56,13.50
2014,08,21,02,57,13.50
2014,08,21,02,58,13.60
2014,08,21,02,59,13.50
2014,08,21,03,00,13.50
2014,08,21,03,01,13.50
2014,08,21,03,02,13.50
2014,08,21,03,03,13.60
2014,08,21,03,04,13.60
2014,08,21,03,05,13.60
2014,08,21,03,06,13.60
2014,08,21,03,07,13.60
2014,08,21,03,08,13.70
2014,08,21,03,09,13.70
2014,08,21,03,10,13.70
2014,08,21,03,11,13.70
2014,08,21,03,12,13.70
2014,08,21,03,13,13.70
2014,08,21,03,14,13.70
2014,08,21,03,15,13.70
2014,08,21,03,16,13.70
2014,08,21,03,17,13.70
2014,08,21,03,18,13.70
2014,08,21,03,19,13.70
2014,08,21,03,20,13.70
2014,08,21,03,21,13.70
2014,08,21,03,22,13.70
2014,08,21,03,23,13.70
2014,08,21,03,24,13.60
2014,08,21,03,25,13.60
2014,08,21,03,26,13.60
2014,08,21,03,27,13.60
2014,08,21,03,28,13.60
2014,08,21,03,29,13.60
2014,08,21,03,30,13.60
2014,08,21,03,31,13.50
2014,08,21,03,32,13.50
2014,08,21,03,33,13.50
2014,08,21,03,34,13.50
2014,08,21,03,35,13.50
2014,08,21,03,36,13.50
2014,08,21,03,37,13.40
2014,08,21,03,38,13.40
2014,08,21,03,39,13.40
2014,08,21,03,40,13.40
2014,08,21,03,41,13.40
2014,08,21,03,42,13.30
2014,08,21,03,43,13.30
2014,08,21,03,44,13.30
2014,08,21,03,45,13.30
2014,08,21,03,46,13.30
2014,08,21,03,47,13.30
2014,08,21,03,48,13.30
2014,08,21,03,49,13.20
2014,08,21,03,50,13.20
2014,08,21,03,51,13.20
2014,08,21,03,52,13.20
2014,08,21,03,53,13.20
2014,08,21,03,54,13.20
2014,08,21,03,55,13.10
2014,08,21,03,56,13.10
2014,08,21,03,57,13.10
2014,08,21,03,58,13.10
2014,08,21,03,59,13.10
2014,08,21,04,00,13.10
2014,08,21,04,01,13.00
2014,08,21,04,02,13.00
2014,08,21,04,03,13.00
2014,08,21,04,04,12.90
2014,08,21,04,05,12.90
2014,08,21,04,06,12.90
2014,08,21,04,07,12.90
2014,08,21,04,08,12.80
2014,08,21,04,09,12.80
2014,08,21,04,10,12.80
2014,08,21,04,11,12.80
2014,08,21,04,12,12.80
2014,08,21,04,13,12.80
2014,08,21,04,14,12.80
2014,08,21,04,15,12.80
2014,08,21,04,16,12.80
2014,08,21,04,17,12.80
2014,08,21,04,18,12.80
2014,08,21,04,19,12.80
2014,08,21,04,20,12.80
2014,08,21,04,21,12.80
2014,08,21,04,22,12.70
2014,08,21,04,23,12.70
2014,08,21,04,24,12.70
2014,08,21,04,25,12.70
2014,08,21,04,26,12.70
2014,08,21,04,27,12.60
2014,08,21,04,28,12.60
2014,08,21,04,29,12.60
2014,08,21,04,30,12.60
2014,08,21,04,31,12.60
2014,08,21,04,32,12.60
2014,08,21,04,33,12.50
2014,08,21,04,34,12.50
2014,08,21,04,35,12.50
2014,08,21,04,36,12.50
2014,08,21,04,37,12.50
2014,08,21,04,38,12.50
2014,08,21,04,39,12.50
2014,08,21,04,40,12.50
2014,08,21,04,41,12.50
2014,08,21,04,42,12.50
2014,08,21,04,43,12.50
2014,08,21,04,44,12.50
2014,08,21,04,45,12.50
2014,08,21,04,46,12.50
2014,08,21,04,47,12.50
2014,08,21,04,48,12.60
2014,08,21,04,49,12.60
2014,08,21,04,50,12.60
2014,08,21,04,51,12.60
2014,08,21,04,52,12.60
2014,08,21,04,53,12.60
2014,08,21,04,54,12.60
2014,08,21,04,55,12.60
2014,08,21,04,56,12.60
2014,08,21,04,57,12.60
2014,08,21,04,58,12.60
2014,08,21,04,59,12.50
2014,08,21,05,00,12.60
2014,08,21,05,01,12.50
2014,08,21,05,02,12.50
2014,08,21,05,03,12.50
2014,08,21,05,04,12.50
2014,08,21,05,05,12.50
2014,08,21,05,06,12.50
2014,08,21,05,07,12.50
2014,08,21,05,08,12.50
2014,08,21,05,09,12.50
2014,08,21,05,10,12.50
2014,08,21,05,11,12.50
2014,08,21,05,12,12.40
2014,08,21,05,13,12.40
2014,08,21,05,14,12.40
2014,08,21,05,15,12.40
2014,08,21,05,16,12.40
2014,08,21,05,17,12.40
2014,08,21,05,18,12.40
2014,08,21,05,19,12.30
2014,08,21,05,20,12.30
2014,08,21,05,21,12.30
2014,08,21,05,22,12.30
2014,08,21,05,23,12.30
2014,08,21,05,24,12.30
2014,08,21,05,25,12.30
2014,08,21,05,26,12.30
2014,08,21,05,27,12.20
2014,08,21,05,28,12.20
2014,08,21,05,29,12.20
2014,08,21,05,30,12.20
2014,08,21,05,31,12.20
2014,08,21,05,32,12.20
2014,08,21,05,33,12.20
2014,08,21,05,34,12.20
2014,08,21,05,35,12.20
2014,08,21,05,36,12.20
2014,08,21,05,37,12.20
2014,08,21,05,38,12.20
2014,08,21,05,39,12.20
2014,08,21,05,40,12.20
2014,08,21,05,41,12.20
2014,08,21,05,42,12.20
2014,08,21,05,43,12.20
2014,08,21,05,44,12.20
2014,08,21,05,45,12.20
2014,08,21,05,46,12.20
2014,08,21,05,47,12.20
2014,08,21,05,48,12.20
2014,08,21,05,49,12.20
2014,08,21,05,50,12.20
2014,08,21,05,51,12.20
2014,08,21,05,52,12.20
2014,08,21,05,53,12.20
2014,08,21,05,54,12.20
2014,08,21,05,55,12.20
2014,08,21,05,56,12.20
2014,08,21,05,57,12.20
2014,08,21,05,58,12.20
2014,08,21,05,59,12.20
2014,08,21,06,00,12.20
2014,08,21,06,01,12.20
2014,08,21,06,02,12.20
2014,08,21,06,03,12.20
2014,08,21,06,04,12.10
2014,08,21,06,05,12.10
2014,08,21,06,06,12.10
2014,08,21,06,07,12.10
2014,08,21,06,08,12.10
2014,08,21,06,09,12.10
2014,08,21,06,10,12.10
2014,08,21,06,11,12.10
2014,08,21,06,12,12.10
2014,08,21,06,13,12.10
2014,08,21,06,14,12.10
2014,08,21,06,15,12.10
2014,08,21,06,16,12.10
2014,08,21,06,17,12.10
2014,08,21,06,18,12.10
2014,08,21,06,19,12.10
2014,08,21,06,20,12.10
2014,08,21,06,21,12.00
2014,08,21,06,22,12.00
2014,08,21,06,23,12.00
2014,08,21,06,24,12.00
2014,08,21,06,25,12.00
2014,08,21,06,26,12.00
2014,08,21,06,27,12.00
2014,08,21,06,28,12.00
2014,08,21,06,29,12.00
2014,08,21,06,30,12.00
2014,08,21,06,31,12.00
2014,08,21,06,32,12.00
2014,08,21,06,33,12.00
2014,08,21,06,34,11.90
2014,08,21,06,35,11.90
2014,08,21,06,36,11.90
2014,08,21,06,37,11.90
2014,08,21,06,38,11.90
2014,08,21,06,39,11.80
2014,08,21,06,40,11.80
2014,08,21,06,41,11.80
2014,08,21,06,42,11.80
2014,08,21,06,43,11.80
2014,08,21,06,44,11.80
2014,08,21,06,45,11.80
2014,08,21,06,46,11.70
2014,08,21,06,47,11.70
2014,08,21,06,48,11.70
2014,08,21,06,49,11.70
2014,08,21,06,50,11.70
2014,08,21,06,51,11.70
2014,08,21,06,52,11.70
2014,08,21,06,53,11.70
2014,08,21,06,54,11.70
2014,08,21,06,55,11.70
2014,08,21,06,56,11.70
2014,08,21,06,57,11.70
2014,08,21,06,58,11.80
2014,08,21,06,59,11.80
2014,08,21,07,00,11.80
2014,08,21,07,01,11.80
2014,08,21,07,02,11.80
2014,08,21,07,03,11.80
2014,08,21,07,04,11.90
2014,08,21,07,05,11.90
2014,08,21,07,06,11.90
2014,08,21,07,07,11.90
2014,08,21,07,08,12.00
2014,08,21,07,09,11.90
2014,08,21,07,10,12.00
2014,08,21,07,11,12.00
2014,08,21,07,12,12.00
2014,08,21,07,13,12.00
2014,08,21,07,14,12.00
2014,08,21,07,15,12.00
2014,08,21,07,16,12.00
2014,08,21,07,17,12.00
2014,08,21,07,18,12.00
2014,08,21,07,19,12.10
2014,08,21,07,20,12.10
2014,08,21,07,21,12.20
2014,08,21,07,22,12.20
2014,08,21,07,23,12.20
2014,08,21,07,24,12.30
2014,08,21,07,25,12.30
2014,08,21,07,26,12.30
2014,08,21,07,27,12.40
2014,08,21,07,28,12.40
2014,08,21,07,29,12.40
2014,08,21,07,30,12.50
2014,08,21,07,31,12.50
2014,08,21,07,32,12.50
2014,08,21,07,33,12.60
2014,08,21,07,34,12.60
2014,08,21,07,35,12.60
2014,08,21,07,36,12.60
2014,08,21,07,37,12.60
2014,08,21,07,38,12.60
2014,08,21,07,39,12.60
2014,08,21,07,40,12.60
2014,08,21,07,41,12.60
2014,08,21,07,42,12.60
2014,08,21,07,43,12.60
2014,08,21,07,44,12.60
2014,08,21,07,45,12.60
2014,08,21,07,46,12.60
2014,08,21,07,47,12.60
2014,08,21,07,48,12.60
2014,08,21,07,49,12.50
2014,08,21,07,50,12.50
2014,08,21,07,51,12.50
2014,08,21,07,52,12.50
2014,08,21,07,53,12.50
2014,08,21,07,54,12.50
2014,08,21,07,55,12.50
2014,08,21,07,56,12.60
2014,08,21,07,57,12.60
2014,08,21,07,58,12.60
2014,08,21,07,59,12.60
2014,08,21,08,00,12.60
2014,08,21,08,01,12.60
2014,08,21,08,02,12.60
2014,08,21,08,03,12.70
2014,08,21,08,04,12.70
2014,08,21,08,05,12.70
2014,08,21,08,06,12.70
2014,08,21,08,07,12.70
2014,08,21,08,08,12.70
2014,08,21,08,09,12.80
2014,08,21,08,10,12.80
2014,08,21,08,11,12.90
2014,08,21,08,12,13.00
2014,08,21,08,13,13.00
2014,08,21,08,14,13.10
2014,08,21,08,15,13.20
2014,08,21,08,16,13.20
2014,08,21,08,17,13.30
2014,08,21,08,18,13.40
2014,08,21,08,19,13.50
2014,08,21,08,20,13.50
2014,08,21,08,21,13.60
2014,08,21,08,22,13.70
2014,08,21,08,23,13.70
2014,08,21,08,24,13.80
2014,08,21,08,25,13.80
2014,08,21,08,26,13.80
2014,08,21,08,27,13.90
2014,08,21,08,28,14.00
2014,08,21,08,29,14.00
2014,08,21,08,30,14.10
2014,08,21,08,31,14.10
2014,08,21,08,32,14.20
2014,08,21,08,33,14.20
2014,08,21,08,34,14.30
2014,08,21,08,35,14.40
2014,08,21,08,36,14.40
2014,08,21,08,37,14.50
2014,08,21,08,38,14.60
2014,08,21,08,39,14.70
2014,08,21,08,40,14.80
2014,08,21,08,41,14.80
2014,08,21,08,42,14.90
2014,08,21,08,43,14.90
2014,08,21,08,44,15.00
2014,08,21,08,45,15.00
2014,08,21,08,46,15.10
2014,08,21,08,47,15.10
2014,08,21,08,48,15.20
2014,08,21,08,49,15.30
2014,08,21,08,50,15.30
2014,08,21,08,51,15.40
2014,08,21,08,52,15.40
2014,08,21,08,53,15.50
2014,08,21,08,54,15.50
2014,08,21,08,55,15.60
2014,08,21,08,56,15.60
2014,08,21,08,57,15.60
2014,08,21,08,58,15.60
2014,08,21,08,59,15.70
2014,08,21,09,00,15.70
2014,08,21,09,01,15.70
2014,08,21,09,02,15.70
2014,08,21,09,03,15.70
2014,08,21,09,04,15.70
2014,08,21,09,05,15.70
2014,08,21,09,06,15.80
2014,08,21,09,07,15.80
2014,08,21,09,08,15.80
2014,08,21,09,09,15.80
2014,08,21,09,10,15.80
2014,08,21,09,11,15.80
2014,08,21,09,12,15.80
2014,08,21,09,13,15.80
2014,08,21,09,14,15.80
2014,08,21,09,15,15.80
2014,08,21,09,16,15.80
2014,08,21,09,17,15.80
2014,08,21,09,18,15.70
2014,08,21,09,19,15.70
2014,08,21,09,20,15.70
2014,08,21,09,21,15.70
2014,08,21,09,22,15.70
2014,08,21,09,23,15.60
2014,08,21,09,24,15.60
2014,08,21,09,25,15.60
2014,08,21,09,26,15.60
2014,08,21,09,27,15.60
2014,08,21,09,28,15.70
2014,08,21,09,29,15.70
2014,08,21,09,30,15.80
2014,08,21,09,31,15.80
2014,08,21,09,32,15.90
2014,08,21,09,33,15.90
2014,08,21,09,34,15.90
2014,08,21,09,35,15.90
2014,08,21,09,36,15.90
2014,08,21,09,37,15.90
2014,08,21,09,38,16.00
2014,08,21,09,39,16.00
2014,08,21,09,40,16.10
2014,08,21,09,41,16.20
2014,08,21,09,42,16.20
2014,08,21,09,43,16.20
2014,08,21,09,44,16.30
2014,08,21,09,45,16.40
2014,08,21,09,46,16.40
2014,08,21,09,47,16.50
2014,08,21,09,48,16.50
2014,08,21,09,49,16.50
2014,08,21,09,50,16.40
2014,08,21,09,51,16.40
2014,08,21,09,52,16.40
2014,08,21,09,53,16.40
2014,08,21,09,54,16.40
2014,08,21,09,55,16.40
2014,08,21,09,56,16.40
2014,08,21,09,57,16.40
2014,08,21,09,58,16.40
2014,08,21,09,59,16.40
2014,08,21,10,00,16.40
2014,08,21,10,01,16.50
2014,08,21,10,02,16.50
2014,08,21,10,03,16.60
2014,08,21,10,04,16.60
2014,08,21,10,05,16.60
2014,08,21,10,06,16.60
2014,08,21,10,07,16.70
2014,08,21,10,08,16.70
2014,08,21,10,09,16.70
2014,08,21,10,10,16.70
2014,08,21,10,11,16.70
2014,08,21,10,12,16.70
2014,08,21,10,13,16.70
2014,08,21,10,14,16.80
2014,08,21,10,15,16.80
2014,08,21,10,16,16.80
2014,08,21,10,17,16.80
2014,08,21,10,18,16.90
2014,08,21,10,19,16.90
2014,08,21,10,20,16.90
2014,08,21,10,21,16.90
2014,08,21,10,22,16.90
2014,08,21,10,23,16.90
2014,08,21,10,24,16.90
2014,08,21,10,25,16.90
2014,08,21,10,26,16.90
2014,08,21,10,27,16.90
2014,08,21,10,28,16.90
2014,08,21,10,29,17.00
2014,08,21,10,30,17.00
2014,08,21,10,31,16.90
2014,08,21,10,32,16.90
2014,08,21,10,33,16.90
2014,08,21,10,34,16.80
2014,08,21,10,35,16.80
2014,08,21,10,36,16.70
2014,08,21,10,37,16.70
2014,08,21,10,38,16.70
2014,08,21,10,39,16.70
2014,08,21,10,40,16.70
2014,08,21,10,41,16.70
2014,08,21,10,42,16.70
2014,08,21,10,43,16.80
2014,08,21,10,44,16.80
2014,08,21,10,45,16.80
2014,08,21,10,46,16.80
2014,08,21,10,47,16.80
2014,08,21,10,48,16.80
2014,08,21,10,49,16.80
2014,08,21,10,50,16.80
2014,08,21,10,51,16.90
2014,08,21,10,52,16.90
2014,08,21,10,53,16.90
2014,08,21,10,54,16.80
2014,08,21,10,55,16.80
2014,08,21,10,56,16.80
2014,08,21,10,57,16.80
2014,08,21,10,58,16.80
2014,08,21,10,59,16.80
2014,08,21,11,00,16.80
2014,08,21,11,01,16.70
2014,08,21,11,02,16.70
2014,08,21,11,03,16.70
2014,08,21,11,04,16.80
2014,08,21,11,05,16.80
2014,08,21,11,06,16.80
2014,08,21,11,07,16.80
2014,08,21,11,08,16.80
2014,08,21,11,09,16.80
2014,08,21,11,10,16.70
2014,08,21,11,11,16.60
2014,08,21,11,12,16.60
2014,08,21,11,13,16.60
2014,08,21,11,14,16.60
2014,08,21,11,15,16.60
2014,08,21,11,16,16.50
2014,08,21,11,17,16.40
2014,08,21,11,18,16.40
2014,08,21,11,19,16.30
2014,08,21,11,20,16.20
2014,08,21,11,21,16.20
2014,08,21,11,22,16.10
2014,08,21,11,23,16.00
2014,08,21,11,24,15.90
2014,08,21,11,25,15.90
2014,08,21,11,26,15.90
2014,08,21,11,27,15.90
2014,08,21,11,28,15.90
2014,08,21,11,29,15.90
2014,08,21,11,30,15.90
2014,08,21,11,31,15.90
2014,08,21,11,32,15.90
2014,08,21,11,33,15.90
2014,08,21,11,34,15.90
2014,08,21,11,35,15.90
2014,08,21,11,36,15.90
2014,08,21,11,37,15.90
2014,08,21,11,38,15.80
2014,08,21,11,39,15.80
2014,08,21,11,40,15.80
2014,08,21,11,41,15.90
2014,08,21,11,42,15.90
2014,08,21,11,43,15.90
2014,08,21,11,44,15.80
2014,08,21,11,45,15.80
2014,08,21,11,46,15.80
2014,08,21,11,47,15.80
2014,08,21,11,48,15.80
2014,08,21,11,49,15.80
2014,08,21,11,50,15.80
2014,08,21,11,51,15.80
2014,08,21,11,52,15.80
2014,08,21,11,53,15.80
2014,08,21,11,54,15.80
2014,08,21,11,55,15.80
2014,08,21,11,56,15.80
2014,08,21,11,57,15.70
2014,08,21,11,58,15.70
2014,08,21,11,59,15.70
2014,08,21,12,00,15.70
2014,08,21,12,01,15.70
2014,08,21,12,02,15.70
2014,08,21,12,03,15.70
2014,08,21,12,04,15.70
2014,08,21,12,05,15.70
2014,08,21,12,06,15.60
2014,08,21,12,07,15.60
2014,08,21,12,08,15.60
2014,08,21,12,09,15.70
2014,08,21,12,10,15.70
2014,08,21,12,11,15.80
2014,08,21,12,12,15.90
2014,08,21,12,13,16.00
2014,08,21,12,14,16.10
2014,08,21,12,15,16.10
2014,08,21,12,16,16.10
2014,08,21,12,17,16.10
2014,08,21,12,18,16.10
2014,08,21,12,19,16.20
2014,08,21,12,20,16.20
2014,08,21,12,21,16.20
2014,08,21,12,22,16.30
2014,08,21,12,23,16.30
2014,08,21,12,24,16.40
2014,08,21,12,25,16.40
2014,08,21,12,26,16.50
2014,08,21,12,27,16.50
2014,08,21,12,28,16.50
2014,08,21,12,29,16.50
2014,08,21,12,30,16.50
2014,08,21,12,31,16.40
2014,08,21,12,32,16.40
2014,08,21,12,33,16.30
2014,08,21,12,34,16.20
2014,08,21,12,35,16.20
2014,08,21,12,36,16.30
2014,08,21,12,37,16.30
2014,08,21,12,38,16.40
2014,08,21,12,39,16.40
2014,08,21,12,40,16.50
2014,08,21,12,41,16.50
2014,08,21,12,42,16.60
2014,08,21,12,43,16.60
2014,08,21,12,44,16.60
2014,08,21,12,45,16.50
2014,08,21,12,46,16.30
2014,08,21,12,47,16.20
2014,08,21,12,48,16.20
2014,08,21,12,49,16.20
2014,08,21,12,50,16.10
2014,08,21,12,51,16.10
2014,08,21,12,52,16.10
2014,08,21,12,53,16.00
2014,08,21,12,54,16.00
2014,08,21,12,55,15.90
2014,08,21,12,56,15.80
2014,08,21,12,57,15.70
2014,08,21,12,58,15.70
2014,08,21,12,59,15.70
2014,08,21,13,00,15.70
2014,08,21,13,01,15.60
2014,08,21,13,02,15.60
2014,08,21,13,03,15.50
2014,08,21,13,04,15.40
2014,08,21,13,05,15.40
2014,08,21,13,06,15.40
2014,08,21,13,07,15.40
2014,08,21,13,08,15.40
2014,08,21,13,09,15.40
2014,08,21,13,10,15.50
2014,08,21,13,11,15.50
2014,08,21,13,12,15.50
2014,08,21,13,13,15.60
2014,08,21,13,14,15.60
2014,08,21,13,15,15.70
2014,08,21,13,16,15.70
2014,08,21,13,17,15.70
2014,08,21,13,18,15.70
2014,08,21,13,19,15.70
2014,08,21,13,20,15.70
2014,08,21,13,21,15.70
2014,08,21,13,22,15.80
2014,08,21,13,23,15.80
2014,08,21,13,24,15.80
2014,08,21,13,25,15.90
2014,08,21,13,26,16.00
2014,08,21,13,27,16.10
2014,08,21,13,28,16.20
2014,08,21,13,29,16.30
2014,08,21,13,30,16.30
2014,08,21,13,31,16.40
2014,08,21,13,32,16.40
2014,08,21,13,33,16.50
2014,08,21,13,34,16.50
2014,08,21,13,35,16.50
2014,08,21,13,36,16.60
2014,08,21,13,37,16.70
2014,08,21,13,38,16.80
2014,08,21,13,39,16.90
2014,08,21,13,40,16.90
2014,08,21,13,41,16.90
2014,08,21,13,42,16.90
2014,08,21,13,43,17.00
2014,08,21,13,44,16.90
2014,08,21,13,45,16.90
2014,08,21,13,46,17.00
2014,08,21,13,47,17.10
2014,08,21,13,48,17.10
2014,08,21,13,49,17.20
2014,08,21,13,50,17.20
2014,08,21,13,51,17.20
2014,08,21,13,52,17.20
2014,08,21,13,53,17.10
2014,08,21,13,54,16.90
2014,08,21,13,55,16.80
2014,08,21,13,56,16.70
2014,08,21,13,57,16.60
2014,08,21,13,58,16.50
2014,08,21,13,59,16.40
2014,08,21,14,00,16.40
2014,08,21,14,01,16.30
2014,08,21,14,02,16.10
2014,08,21,14,03,16.10
2014,08,21,14,04,16.00
2014,08,21,14,05,15.90
2014,08,21,14,06,15.90
2014,08,21,14,07,15.80
2014,08,21,14,08,15.70
2014,08,21,14,09,15.70
2014,08,21,14,10,15.60
2014,08,21,14,11,15.60
2014,08,21,14,12,15.50
2014,08,21,14,13,15.40
2014,08,21,14,14,15.40
2014,08,21,14,15,15.30
2014,08,21,14,16,15.30
2014,08,21,14,17,15.30
2014,08,21,14,18,15.30
2014,08,21,14,19,15.20
2014,08,21,14,20,15.10
2014,08,21,14,21,15.00
2014,08,21,14,22,15.00
2014,08,21,14,23,14.90
2014,08,21,14,24,14.80
2014,08,21,14,25,14.80
2014,08,21,14,26,14.80
2014,08,21,14,27,14.80
2014,08,21,14,28,14.90
2014,08,21,14,29,14.90
2014,08,21,14,30,15.00
2014,08,21,14,31,15.10
2014,08,21,14,32,15.00
2014,08,21,14,33,15.00
2014,08,21,14,34,15.00
2014,08,21,14,35,15.00
2014,08,21,14,36,15.10
2014,08,21,14,37,15.20
2014,08,21,14,38,15.30
2014,08,21,14,39,15.40
2014,08,21,14,40,15.40
2014,08,21,14,41,15.50
2014,08,21,14,42,15.50
2014,08,21,14,43,15.60
2014,08,21,14,44,15.70
2014,08,21,14,45,15.70
2014,08,21,14,46,15.70
2014,08,21,14,47,15.70
2014,08,21,14,48,15.80
2014,08,21,14,49,15.80
2014,08,21,14,50,15.70
2014,08,21,14,51,15.70
2014,08,21,14,52,15.60
2014,08,21,14,53,15.60
2014,08,21,14,54,15.70
2014,08,21,14,55,15.70
2014,08,21,14,56,15.80
2014,08,21,14,57,15.90
2014,08,21,14,58,16.00
2014,08,21,14,59,16.20
2014,08,21,15,00,16.30
2014,08,21,15,01,16.50
2014,08,21,15,02,16.60
2014,08,21,15,03,16.70
2014,08,21,15,04,16.80
2014,08,21,15,05,16.90
2014,08,21,15,06,17.00
2014,08,21,15,07,17.10
2014,08,21,15,08,17.20
2014,08,21,15,09,17.30
2014,08,21,15,10,17.30
2014,08,21,15,11,17.40
2014,08,21,15,12,17.50
2014,08,21,15,13,17.60
2014,08,21,15,14,17.70
2014,08,21,15,15,17.80
2014,08,21,15,16,17.90
2014,08,21,15,17,18.00
2014,08,21,15,18,18.10
2014,08,21,15,19,18.20
2014,08,21,15,20,18.20
2014,08,21,15,21,18.30
2014,08,21,15,22,18.30
2014,08,21,15,23,18.30
2014,08,21,15,24,18.40
2014,08,21,15,25,18.50
2014,08,21,15,26,18.60
2014,08,21,15,27,18.70
2014,08,21,15,28,18.80
2014,08,21,15,29,18.90
2014,08,21,15,30,19.00
2014,08,21,15,31,19.00
2014,08,21,15,32,19.00
2014,08,21,15,33,19.10
2014,08,21,15,34,19.10
2014,08,21,15,35,19.10
2014,08,21,15,36,19.10
2014,08,21,15,37,19.10
2014,08,21,15,38,19.00
2014,08,21,15,39,19.00
2014,08,21,15,40,19.10
2014,08,21,15,41,19.10
2014,08,21,15,42,19.20
2014,08,21,15,43,19.20
2014,08,21,15,44,19.20
2014,08,21,15,45,19.20
2014,08,21,15,46,19.30
2014,08,21,15,47,19.30
2014,08,21,15,48,19.40
2014,08,21,15,49,19.50
2014,08,21,15,50,19.60
2014,08,21,15,51,19.70
2014,08,21,15,52,19.80
2014,08,21,15,53,20.00
2014,08,21,15,54,20.00
2014,08,21,15,55,20.10
2014,08,21,15,56,20.10
2014,08,21,15,57,20.10
2014,08,21,15,58,20.10
2014,08,21,15,59,20.20
2014,08,21,16,00,20.30
2014,08,21,16,01,20.40
2014,08,21,16,02,20.40
2014,08,21,16,03,20.50
2014,08,21,16,04,20.50
2014,08,21,16,05,20.60
2014,08,21,16,06,20.60
2014,08,21,16,07,20.60
2014,08,21,16,08,20.60
2014,08,21,16,09,20.70
2014,08,21,16,10,20.80
2014,08,21,16,11,20.80
2014,08,21,16,12,20.80
2014,08,21,16,13,20.80
2014,08,21,16,14,20.80
2014,08,21,16,15,20.90
2014,08,21,16,16,21.00
2014,08,21,16,17,21.00
2014,08,21,16,18,21.10
2014,08,21,16,19,21.10
2014,08,21,16,20,21.10
2014,08,21,16,21,21.10
2014,08,21,16,22,21.20
2014,08,21,16,23,21.30
2014,08,21,16,24,21.30
2014,08,21,16,25,21.40
2014,08,21,16,26,21.50
2014,08,21,16,27,21.60
2014,08,21,16,28,21.60
2014,08,21,16,29,21.60
2014,08,21,16,30,21.70
2014,08,21,16,31,21.80
2014,08,21,16,32,21.80
2014,08,21,16,33,21.90
2014,08,21,16,34,21.90
2014,08,21,16,35,22.00
2014,08,21,16,36,22.00
2014,08,21,16,37,22.10
2014,08,21,16,38,22.00
2014,08,21,16,39,21.90
2014,08,21,16,40,21.90
2014,08,21,16,41,21.90
2014,08,21,16,42,21.90
2014,08,21,16,43,21.90
2014,08,21,16,44,22.00
2014,08,21,16,45,22.00
2014,08,21,16,46,22.00
2014,08,21,16,47,22.00
2014,08,21,16,48,22.00
2014,08,21,16,49,21.90
2014,08,21,16,50,22.00
2014,08,21,16,51,22.10
2014,08,21,16,52,22.10
2014,08,21,16,53,22.00
2014,08,21,16,54,22.00
2014,08,21,16,55,22.00
2014,08,21,16,56,22.00
2014,08,21,16,57,21.90
2014,08,21,16,58,21.90
2014,08,21,16,59,21.90
2014,08,21,17,00,21.90
2014,08,21,17,01,21.90
2014,08,21,17,02,22.00
2014,08,21,17,03,22.00
2014,08,21,17,04,22.00
2014,08,21,17,05,22.00
2014,08,21,17,06,22.00
2014,08,21,17,07,21.90
2014,08,21,17,08,21.90
2014,08,21,17,09,21.80
2014,08,21,17,10,21.80
2014,08,21,17,11,21.80
2014,08,21,17,12,21.80
2014,08,21,17,13,21.80
2014,08,21,17,14,21.80
2014,08,21,17,15,21.70
2014,08,21,17,16,21.70
2014,08,21,17,17,21.70
2014,08,21,17,18,21.70
2014,08,21,17,19,21.70